Miscellaneous Local Product
Issued by NWS Hastings, NE

Home | Current Version | Previous Version | Graphics & Text | Print | Product List | Glossary Off
Versions: 1 2 3 4 5 6 7 8 9 10 11 12 13 14 15 16 17 18 19 20 21 22 23 24 25 26 27 28 29 30 31 32 33 34 35 36 37 38 39 40 41 42 43 44 45 46 47 48 49 50

000
AXUS43 KGID 142202
MISGRI

GID CWA HOURLY WEATHER ROUNDUP
NATIONAL WEATHER SERVICE HASTINGS NE
400 PM CST THU DEC 14 2017

NOTE: "FAIR" INDICATES FEW OR NO CLOUDS BELOW 12,000 FEET WITH NO
SIGNIFICANT WEATHER AND/OR OBSTRUCTIONS TO VISIBILITY.

...SOUTH CENTRAL NEBRASKA...

CITY           SKY/WX    TMP DP  RH WIND       PRES   REMARKS
GRAND ISLAND   CLOUDY    36  35  96 N13       30.10R WCI  27
KEARNEY        CLOUDY    37  32  82 N22G28    30.12R WCI  26
HASTINGS       CLOUDY    36  33  89 N17G25    30.10R WCI  26
ORD            CLOUDY    36  32  85 NW17G26   30.10R WCI  26
YORK           LGT RAIN  36  36 100 CALM      30.09R
AURORA         DRIZZLE   37  35  93 N13       30.09R WCI  28
LEXINGTON      CLOUDY    38  28  66 N20       30.14R WCI  28
HOLDREGE       CLOUDY    37  31  77 N20G26    30.12R WCI  27
HEBRON         LGT RAIN  39  36  89 N7        30.09R WCI  34

...NEBRASKA PANHANDLE...

CITY           SKY/WX    TMP DP  RH WIND       PRES   REMARKS
CHADRON        CLOUDY    35  21  56 N9        30.22R WCI  28
ALLIANCE       CLOUDY    31  21  66 NW13      30.18S WCI  21
SCOTTSBLUFF    CLOUDY    35  19  52 N21G28    30.22R WCI  24
SIDNEY         CLOUDY    34  16  47 N28G38    30.19R WCI  21

...WESTERN AND NORTH CENTRAL NEBRASKA...

CITY           SKY/WX    TMP DP  RH WIND       PRES   REMARKS
VALENTINE      CLOUDY    35  30  82 NW17G23   30.15R WCI  25
AINSWORTH      CLOUDY    32  31  95 N16G24    30.14R WCI  22
ONEILL         DRIZZLE   34  34 100 NW14G20   30.11R WCI  24
BROKEN BOW     CLOUDY    35  34  96 NW15G25   30.12R WCI  25
IMPERIAL       CLOUDY    36  28  73 N15       30.18R WCI  27
NORTH PLATTE   CLOUDY    38  24  57 NW17G28   30.16R WCI  28
MCCOOK         CLOUDY    40  22  48 N20       30.15R WCI  30

...EASTERN NEBRASKA...

CITY           SKY/WX    TMP DP  RH WIND       PRES   REMARKS
NORFOLK        CLOUDY    35  30  82 NW12      30.06R WCI  27
SO SIOUX CITY  CLOUDY    38  25  59 NW7       30.07R WCI  33
TEKAMAH        CLOUDY    39  24  55 NE8       30.07R WCI  33
COLUMBUS       MIX PCPN  36  33  89 NW13      30.09R WCI  27
ALBION         DRIZZLE   37  34  90 N16       30.09R WCI  27
OMAHA EPPLEY   CLOUDY    41  25  53 N8        30.07R
OFFUTT AFB     CLOUDY    41  25  53 N8        30.06R
MILLARD        CLOUDY    42  28  57 N7        30.07R
LINCOLN        LGT RAIN  39  32  76 NW12      30.10R WCI  32
NEBRASKA CITY  CLOUDY    41  27  57 N13       30.06R
BEATRICE       DRIZZLE   39  33  80 NW9       30.08R WCI  33
FALLS CITY     CLOUDY    42  24  49 NW8       30.06R

...NORTHERN KANSAS...

CITY           SKY/WX    TMP DP  RH WIND       PRES   REMARKS
GOODLAND       MOSUNNY   35  25  66 N17G28    30.16R WCI  25
HILL CITY      PTSUNNY   43  28  55 N26G35    30.15R
NORTON         CLOUDY    39  19  45 NW21      30.13S WCI  29
PHILLIPSBURG   PTSUNNY   41  28  60 NW16G25   30.14R
SMITH CENTER   CLOUDY    37  32  81 NW15      30.12R WCI  28
HAYS           CLOUDY    44  27  51 N21G29    30.12S
RUSSELL        CLOUDY    42  35  76 NW14      30.10R
CONCORDIA      CLOUDY    41  36  82 NW9       30.08R
SALINA         CLOUDY    47  33  58 NW16      30.09S
TOPEKA         CLOUDY    46  27  47 W12       30.07S



USA.gov is the U.S. government's official web portal to all federal, state and local government web resources and services.